User: anonymous   Login
Location: Prague
(50.0830°N, 14.4670°E)
Time: 05:06:34
(UTC+01:00)
Language:

BUGSAT 1 - Orbit

View from above orbital plane
View from above orbital plane
View from above satellite
View from above satellite

Ground track
Ground track

The orbit data is extracted from the following two-line orbital elements,

1 40014U 14033E   21339.60208452  .00001542  00000-0  14207-3 0  9994
2 40014  98.1281 325.3807 0030561 321.5947  38.3095 14.95974987407152
Epoch (UTC): 05 December 2021 14:27:00
Eccentricity: 0.0030561
inclination: 98.1281°
perigee height: 558 km
apogee height: 600 km
right ascension of ascending node: 325.3807°
argument of perigee: 321.5947°
revolutions per day: 14.95974987
mean anomaly at epoch: 38.3095°
orbit number at epoch: 40715

The dashed part of the orbit path shows where the satellite is in the earth's shadow,  

DLR